This is the latest recevied weather packets stored in our database for station/object W8DRH-13. If no packets are shown the sender has not sent any weather packets the latest 10 day(s).
| Time | Temp. | Humidity | Pressure | Rain* | Wind** | Luminosity | Snow |
|---|---|---|---|---|---|---|---|
| 1777636441 | 7.22° C | 88% | 1009.7 hPa | 0 mm | - | 21 W/m² | - |
| 1777636136 | 7.22° C | 87% | 1009.7 hPa | 0 mm | - | 13 W/m² | - |
| 1777635832 | 7.22° C | 88% | 1009.6 hPa | 0 mm | - | 9 W/m² | - |
| 1777635528 | 7.22° C | 87% | 1009.3 hPa | 0 mm | - | 13 W/m² | - |
| 1777635225 | 7.22° C | 87% | 1009.5 hPa | 0 mm | - | 18 W/m² | - |
| 1777634922 | 7.22° C | 87% | 1009.4 hPa | 0 mm | - | 6 W/m² | - |
| 1777634619 | 7.22° C | 86% | 1009.5 hPa | 0 mm | - | 5 W/m² | - |
| 1777634316 | 7.22° C | 87% | 1009.2 hPa | 0 mm | - | 7 W/m² | - |
| 1777634012 | 7.22° C | 88% | 1009.4 hPa | 0 mm | - | 9 W/m² | - |
| 1777633709 | 7.22° C | 87% | 1009.5 hPa | 0 mm | - | 8 W/m² | - |
| 1777633408 | 7.22° C | 87% | 1009.4 hPa | 0 mm | - | 5 W/m² | - |
| 1777633105 | 7.22° C | 87% | 1009.3 hPa | 0 mm | - | 2 W/m² | - |
| 1777632801 | 7.22° C | 87% | 1009.5 hPa | 0 mm | - | 3 W/m² | - |
| 1777632497 | 7.22° C | 86% | 1009.6 hPa | 0 mm | - | 3 W/m² | - |
| 1777632195 | 7.22° C | 84% | 1009.6 hPa | 1.78 mm | - | 2 W/m² | - |
| 1777631891 | 7.22° C | 85% | 1009.6 hPa | 1.78 mm | - | 0 W/m² | - |
| 1777631590 | 7.22° C | 87% | 1009.8 hPa | 0 mm | - | 0 W/m² | - |
| 1777631287 | 7.22° C | 86% | 1009.9 hPa | 0 mm | - | 0 W/m² | - |
| 1777630984 | 7.22° C | 86% | 1009.8 hPa | 0 mm | - | 0 W/m² | - |
| 1777630679 | 7.22° C | 85% | 1009.9 hPa | 0 mm | - | 0 W/m² | - |
| 1777630377 | 7.22° C | 85% | 1009.8 hPa | 0 mm | - | 0 W/m² | - |
| 1777630074 | 7.22° C | 84% | 1010.1 hPa | 0 mm | - | 0 W/m² | - |
| 1777629771 | 7.78° C | 84% | 1010 hPa | 0 mm | - | 0 W/m² | - |
| 1777629468 | 7.78° C | 83% | 1009.9 hPa | 0 mm | - | 0 W/m² | - |
| 1777629164 | 7.78° C | 82% | 1010 hPa | 0 mm | - | 0 W/m² | - |
* Rain latest hour (hover to see other rain measurements)
** Current wind speed in m/s (hover to see current wind gust speed)